DLH5KH EDDM-EKCH

Flight info

Callsign DLH5KH
Flight time 1h 9m
Altitude 40000
Route INPUD3Q INPUD Y102 UPALA M726 NARUS/N0478F410 DCT EMBOX DCT NOBRI/N0488F430 M726 ROSOK Q296 MONAK
Aircraft A359/H-SDE2E3GHIJ3J4J5LM1ORWXY/LB1D1

Departure

Time 2026-05-04 17:11
Airport Munich Airport (EDDM)

Arrival

Time 2026-05-04 18:20
Airport Copenhagen Kastrup Airport (EKCH)
Time Latitude Longitude Altitude Speed Heading
2026-05-04 16:33 48.35531 11.79723 1483 ft 0 kts 83°
2026-05-04 16:56 48.35530 11.79701 1478 ft 4 kts 83°
2026-05-04 16:56 48.35514 11.79593 1476 ft 4 kts 39°
2026-05-04 16:57 48.35494 11.79583 1476 ft 4 kts 353°
2026-05-04 16:57 48.35464 11.79588 1479 ft 0 kts 353°
2026-05-04 17:01 48.35493 11.79578 1476 ft 11 kts 340°
2026-05-04 17:02 48.35707 11.79410 1488 ft 19 kts 351°
2026-05-04 17:02 48.35851 11.79385 1483 ft 1 kts 355°
2026-05-04 17:03 48.35866 11.79383 1487 ft 3 kts 354°
2026-05-04 17:03 48.35906 11.79362 1476 ft 6 kts 327°
2026-05-04 17:04 48.35966 11.79339 1488 ft 12 kts 352°
2026-05-04 17:04 48.36085 11.79239 1476 ft 9 kts 268°
2026-05-04 17:05 48.36059 11.78871 1482 ft 25 kts 265°
2026-05-04 17:05 48.36017 11.78323 1481 ft 28 kts 265°
2026-05-04 17:06 48.35976 11.77789 1478 ft 26 kts 264°
2026-05-04 17:06 48.35954 11.77512 1478 ft 28 kts 263°
2026-05-04 17:07 48.35910 11.76952 1491 ft 24 kts 269°
2026-05-04 17:07 48.35947 11.76846 1476 ft 17 kts 326°
2026-05-04 17:07 48.36104 11.76803 1489 ft 14 kts 354°
2026-05-04 17:07 48.36131 11.76799 1484 ft 0 kts 354°
2026-05-04 17:09 48.36135 11.76798 1479 ft 4 kts 354°
2026-05-04 17:09 48.36188 11.76790 1485 ft 9 kts 354°
2026-05-04 17:10 48.36285 11.76854 1478 ft 0 kts 84°
2026-05-04 17:10 48.36286 11.76866 1488 ft 10 kts 84°
2026-05-04 17:11 48.36326 11.77387 1481 ft 88 kts 83°
2026-05-04 17:11 48.36422 11.78650 1478 ft 152 kts 83°
2026-05-04 17:11 48.36736 11.82291 2676 ft 177 kts 81°
2026-05-04 17:12 48.36898 11.84224 3200 ft 198 kts 83°
2026-05-04 17:12 48.38536 11.87704 4150 ft 234 kts 16°
2026-05-04 17:13 48.43366 11.84697 6290 ft 271 kts 313°
2026-05-04 17:14 48.47027 11.77868 9168 ft 287 kts 320°
2026-05-04 17:14 48.48746 11.76284 10152 ft 294 kts 328°
2026-05-04 17:14 48.52691 11.73245 11116 ft 340 kts 331°
2026-05-04 17:15 48.54835 11.71689 11857 ft 350 kts 332°
2026-05-04 17:15 48.59328 11.68459 13612 ft 363 kts 332°
2026-05-04 17:16 48.64003 11.65346 15239 ft 373 kts 338°
2026-05-04 17:16 48.71623 11.62102 17769 ft 383 kts 343°
2026-05-04 17:17 48.74198 11.61125 18557 ft 387 kts 343°
2026-05-04 17:17 48.82145 11.58193 20836 ft 397 kts 343°
2026-05-04 17:18 48.84851 11.57198 21590 ft 401 kts 343°
2026-05-04 17:18 48.90334 11.55171 23095 ft 408 kts 343°
2026-05-04 17:19 48.95881 11.53111 24388 ft 416 kts 343°
2026-05-04 17:19 49.01535 11.51005 25637 ft 423 kts 343°
2026-05-04 17:20 49.07337 11.48837 26747 ft 432 kts 343°
2026-05-04 17:20 49.13211 11.46639 27951 ft 439 kts 343°
2026-05-04 17:20 49.16203 11.45517 28525 ft 442 kts 343°
2026-05-04 17:21 49.22189 11.43269 29709 ft 447 kts 343°
2026-05-04 17:21 49.28291 11.40972 30637 ft 455 kts 343°
2026-05-04 17:22 49.31394 11.39801 31031 ft 459 kts 343°
2026-05-04 17:22 49.34475 11.38636 31430 ft 463 kts 343°
2026-05-04 17:23 49.43990 11.35032 32648 ft 473 kts 343°
2026-05-04 17:23 49.47168 11.33825 33040 ft 476 kts 343°
2026-05-04 17:23 49.53657 11.31355 33710 ft 483 kts 343°
2026-05-04 17:24 49.56931 11.30107 34041 ft 486 kts 343°
2026-05-04 17:24 49.66811 11.26332 35194 ft 486 kts 342°
2026-05-04 17:25 49.70100 11.25074 35711 ft 484 kts 342°
2026-05-04 17:25 49.76690 11.22872 36398 ft 487 kts 350°
2026-05-04 17:26 49.83472 11.22458 37144 ft 489 kts 356°
2026-05-04 17:26 49.93652 11.22508 38249 ft 488 kts 357°
2026-05-04 17:27 50.00453 11.22586 38838 ft 487 kts 356°
2026-05-04 17:27 50.07196 11.22639 39329 ft 487 kts 356°
2026-05-04 17:28 50.13982 11.22687 39805 ft 486 kts 356°
2026-05-04 17:29 50.24087 11.22740 40484 ft 485 kts 357°
2026-05-04 17:29 50.33112 11.22790 41032 ft 485 kts 357°
2026-05-04 17:30 50.43170 11.21762 41579 ft 483 kts 352°
2026-05-04 17:31 50.49889 11.20754 41918 ft 483 kts 351°
2026-05-04 17:31 50.60030 11.19191 41972 ft 494 kts 351°
2026-05-04 17:32 50.66864 11.18396 41975 ft 497 kts 358°
2026-05-04 17:33 50.80690 11.19734 41978 ft 498 kts
2026-05-04 17:34 50.94503 11.21420 41965 ft 498 kts
2026-05-04 17:35 51.11768 11.23481 41970 ft 498 kts
2026-05-04 17:36 51.18652 11.24306 41969 ft 498 kts
2026-05-04 17:36 51.25597 11.25141 41970 ft 498 kts
2026-05-04 17:37 51.32477 11.25971 41972 ft 498 kts
2026-05-04 17:37 51.39407 11.26810 41971 ft 497 kts
2026-05-04 17:38 51.46281 11.27644 41971 ft 497 kts
2026-05-04 17:38 51.53162 11.28481 41970 ft 497 kts
2026-05-04 17:39 51.63503 11.29745 41953 ft 497 kts
2026-05-04 17:39 51.70421 11.30593 41948 ft 497 kts
2026-05-04 17:40 51.77280 11.31437 41944 ft 497 kts
2026-05-04 17:40 51.84192 11.32290 41939 ft 496 kts
2026-05-04 17:41 51.91070 11.33141 41937 ft 496 kts
2026-05-04 17:41 51.97936 11.33993 41951 ft 496 kts
2026-05-04 17:42 52.04846 11.34854 41968 ft 496 kts
2026-05-04 17:42 52.11704 11.35935 41975 ft 498 kts
2026-05-04 17:43 52.18600 11.37387 41964 ft 499 kts
2026-05-04 17:43 52.25497 11.38845 41968 ft 499 kts
2026-05-04 17:44 52.32369 11.40240 41967 ft 500 kts
2026-05-04 17:44 52.39272 11.41738 41800 ft 500 kts
2026-05-04 17:45 52.42707 11.42749 41433 ft 499 kts
2026-05-04 17:45 52.46120 11.43834 41069 ft 500 kts
2026-05-04 17:45 52.52938 11.46111 40962 ft 502 kts
2026-05-04 17:46 52.59787 11.48425 40961 ft 502 kts
2026-05-04 17:46 52.66595 11.50714 40960 ft 502 kts
2026-05-04 17:47 52.73418 11.53003 40957 ft 502 kts
2026-05-04 17:47 52.80289 11.55312 40960 ft 502 kts
2026-05-04 17:48 52.87107 11.57611 40956 ft 502 kts
2026-05-04 17:48 52.93951 11.59928 40954 ft 502 kts
2026-05-04 17:49 53.00827 11.62263 40962 ft 502 kts
2026-05-04 17:49 53.07647 11.64587 40957 ft 502 kts
2026-05-04 17:50 53.14471 11.66919 40967 ft 502 kts
2026-05-04 17:50 53.21330 11.69271 40957 ft 502 kts
2026-05-04 17:51 53.28192 11.71633 40959 ft 501 kts
2026-05-04 17:51 53.33649 11.73516 40958 ft 501 kts
2026-05-04 17:52 53.40450 11.75869 40957 ft 501 kts
2026-05-04 17:52 53.47298 11.78246 40960 ft 500 kts
2026-05-04 17:53 53.54075 11.80608 40962 ft 500 kts
2026-05-04 17:53 53.60911 11.82997 40782 ft 498 kts
2026-05-04 17:54 53.64270 11.84175 40540 ft 497 kts
2026-05-04 17:54 53.67666 11.85366 40323 ft 497 kts
2026-05-04 17:54 53.71061 11.86560 40037 ft 495 kts
2026-05-04 17:54 53.74435 11.87748 39398 ft 495 kts
2026-05-04 17:55 53.77779 11.88926 38756 ft 495 kts
2026-05-04 17:55 53.81159 11.90119 37992 ft 495 kts
2026-05-04 17:55 53.84545 11.91317 37302 ft 493 kts
2026-05-04 17:55 53.87867 11.92497 36643 ft 491 kts
2026-05-04 17:56 53.91207 11.93684 35970 ft 490 kts
2026-05-04 17:56 53.94553 11.94874 35251 ft 490 kts
2026-05-04 17:56 53.97899 11.96066 34498 ft 491 kts
2026-05-04 17:56 54.01213 11.97245 33677 ft 493 kts
2026-05-04 17:57 54.04565 11.98444 33112 ft 487 kts
2026-05-04 17:57 54.07868 11.99631 32548 ft 482 kts
2026-05-04 17:57 54.11152 12.00813 31996 ft 478 kts
2026-05-04 17:57 54.14404 12.01984 31433 ft 474 kts
2026-05-04 17:58 54.17590 12.03131 30896 ft 471 kts
2026-05-04 17:58 54.20794 12.04285 30339 ft 469 kts
2026-05-04 17:58 54.23985 12.05435 29751 ft 466 kts
2026-05-04 17:58 54.27149 12.06578 29177 ft 462 kts
2026-05-04 17:59 54.30276 12.07710 28637 ft 457 kts
2026-05-04 17:59 54.33342 12.08823 28108 ft 453 kts
2026-05-04 17:59 54.39463 12.11047 27027 ft 445 kts
2026-05-04 18:00 54.42495 12.12151 26515 ft 442 kts
2026-05-04 18:00 54.45469 12.13234 25931 ft 439 kts
2026-05-04 18:00 54.48464 12.14649 25047 ft 452 kts 11°
2026-05-04 18:00 54.51452 12.16496 24328 ft 455 kts 13°
2026-05-04 18:01 54.54375 12.18400 23742 ft 453 kts 14°
2026-05-04 18:01 54.57320 12.20345 23105 ft 449 kts 14°
2026-05-04 18:01 54.60222 12.22273 22516 ft 444 kts 15°
2026-05-04 18:02 54.65886 12.26050 21423 ft 432 kts 16°
2026-05-04 18:02 54.68676 12.27916 20866 ft 427 kts 16°
2026-05-04 18:02 54.71433 12.29761 20312 ft 422 kts 17°
2026-05-04 18:02 54.74162 12.31591 19780 ft 417 kts 17°
2026-05-04 18:03 54.76854 12.33399 19218 ft 412 kts 17°
2026-05-04 18:03 54.79491 12.35173 18687 ft 408 kts 17°
2026-05-04 18:03 54.82131 12.36950 18138 ft 404 kts 17°
2026-05-04 18:03 54.84749 12.38716 17565 ft 399 kts 17°
2026-05-04 18:04 54.87295 12.40437 17043 ft 393 kts 17°
2026-05-04 18:04 54.89830 12.42153 16534 ft 388 kts 17°
2026-05-04 18:04 54.94823 12.45538 15497 ft 379 kts 17°
2026-05-04 18:05 54.97246 12.47183 15000 ft 375 kts 17°
2026-05-04 18:05 54.99672 12.48832 14503 ft 372 kts 17°
2026-05-04 18:05 55.02080 12.50471 13994 ft 369 kts 17°
2026-05-04 18:05 55.04436 12.52077 13488 ft 366 kts 17°
2026-05-04 18:06 55.09143 12.55292 12475 ft 358 kts 17°
2026-05-04 18:06 55.11436 12.56865 12245 ft 346 kts 17°
2026-05-04 18:06 55.13604 12.58357 12121 ft 331 kts 17°
2026-05-04 18:07 55.15705 12.59803 11986 ft 317 kts 17°
2026-05-04 18:07 55.17716 12.61186 11852 ft 304 kts 17°
2026-05-04 18:07 55.19655 12.62519 11651 ft 294 kts 16°
2026-05-04 18:07 55.21543 12.63816 11370 ft 288 kts 16°
2026-05-04 18:08 55.23402 12.65093 11021 ft 285 kts 16°
2026-05-04 18:08 55.25234 12.66225 10724 ft 280 kts 12°
2026-05-04 18:08 55.27082 12.67241 10437 ft 276 kts 12°
2026-05-04 18:08 55.28915 12.68246 10146 ft 275 kts 12°
2026-05-04 18:09 55.32545 12.70277 9571 ft 272 kts 13°
2026-05-04 18:09 55.36109 12.72299 9010 ft 269 kts 13°
2026-05-04 18:10 55.37889 12.73310 8747 ft 268 kts 13°
2026-05-04 18:10 55.39660 12.74322 8495 ft 266 kts 13°
2026-05-04 18:10 55.41421 12.75331 8224 ft 265 kts 13°
2026-05-04 18:10 55.43181 12.76341 7949 ft 264 kts 13°
2026-05-04 18:11 55.44907 12.77332 7692 ft 263 kts 13°
2026-05-04 18:11 55.46653 12.78335 7432 ft 262 kts 13°
2026-05-04 18:11 55.48369 12.79322 7172 ft 261 kts 13°
2026-05-04 18:11 55.50092 12.80313 6910 ft 259 kts 13°
2026-05-04 18:12 55.51808 12.81302 6657 ft 258 kts 13°
2026-05-04 18:12 55.53509 12.82283 6414 ft 255 kts 14°
2026-05-04 18:12 55.55165 12.83241 6139 ft 250 kts 14°
2026-05-04 18:12 55.56798 12.84220 5886 ft 245 kts 17°
2026-05-04 18:13 55.58372 12.85365 5663 ft 244 kts 20°
2026-05-04 18:13 55.59931 12.86583 5376 ft 243 kts 20°
2026-05-04 18:13 55.62992 12.88995 4785 ft 240 kts 20°
2026-05-04 18:14 55.64522 12.90207 4497 ft 239 kts 20°
2026-05-04 18:14 55.66015 12.91401 4248 ft 237 kts 20°
2026-05-04 18:14 55.67516 12.92594 4031 ft 235 kts 20°
2026-05-04 18:15 55.70486 12.94911 3986 ft 233 kts 17°
2026-05-04 18:15 55.73381 12.94018 3983 ft 204 kts 313°
2026-05-04 18:15 55.74017 12.91890 3916 ft 195 kts 279°
2026-05-04 18:16 55.73912 12.89498 3690 ft 196 kts 258°
2026-05-04 18:16 55.73544 12.87153 3273 ft 202 kts 255°
2026-05-04 18:16 55.73125 12.84768 3004 ft 200 kts 255°
2026-05-04 18:17 55.71598 12.80680 2447 ft 204 kts 223°
2026-05-04 18:17 55.70500 12.79135 2163 ft 197 kts 223°
2026-05-04 18:17 55.68900 12.76626 1723 ft 172 kts 226°
2026-05-04 18:18 55.68029 12.75281 1491 ft 161 kts 225°
2026-05-04 18:18 55.67194 12.73984 1277 ft 157 kts 225°
2026-05-04 18:18 55.66405 12.72757 1058 ft 146 kts 226°
2026-05-04 18:18 55.65672 12.71618 850 ft 134 kts 225°
2026-05-04 18:19 55.64334 12.69530 552 ft 128 kts 225°
2026-05-04 18:19 55.63668 12.68507 370 ft 127 kts 225°
2026-05-04 18:19 55.62999 12.67475 184 ft 127 kts 225°
2026-05-04 18:20 55.62327 12.66437 37 ft 127 kts 225°
2026-05-04 18:20 55.61725 12.65496 28 ft 97 kts 221°
2026-05-04 18:20 55.61381 12.64966 28 ft 51 kts 220°
2026-05-04 18:20 55.61226 12.64483 26 ft 35 kts 252°
2026-05-04 18:21 55.61184 12.64250 26 ft 17 kts 260°
2026-05-04 18:21 55.61235 12.64104 25 ft 16 kts 346°
2026-05-04 18:21 55.61328 12.64166 28 ft 15 kts 33°
2026-05-04 18:21 55.61429 12.64282 28 ft 19 kts 33°
2026-05-04 18:22 55.61550 12.64424 29 ft 22 kts 31°
2026-05-04 18:22 55.61682 12.64577 26 ft 24 kts 31°
2026-05-04 18:22 55.61808 12.64721 26 ft 22 kts 32°
2026-05-04 18:22 55.61919 12.64848 28 ft 17 kts 33°
2026-05-04 18:23 55.61931 12.64862 26 ft 0 kts 33°
2026-05-04 18:23 55.61939 12.64871 26 ft 7 kts 33°
2026-05-04 18:23 55.62014 12.64955 28 ft 14 kts 32°
2026-05-04 18:24 55.62102 12.65057 29 ft 12 kts 34°
2026-05-04 18:24 55.62129 12.65089 27 ft 0 kts 33°
2026-05-04 18:25 55.62140 12.65102 26 ft 8 kts 34°
2026-05-04 18:25 55.62195 12.65165 28 ft 11 kts 30°
2026-05-04 18:25 55.62258 12.65118 29 ft 11 kts 310°
2026-05-04 18:25 55.62309 12.64980 26 ft 16 kts 303°
2026-05-04 18:26 55.62370 12.64805 28 ft 17 kts 304°
2026-05-04 18:26 55.62440 12.64620 28 ft 19 kts 303°
2026-05-04 18:26 55.62486 12.64501 28 ft 8 kts 315°
2026-05-04 18:26 55.62524 12.64512 26 ft 6 kts 24°
2026-05-04 18:27 55.62551 12.64533 26 ft 1 kts 23°
2026-05-04 18:27 55.62558 12.64537 27 ft 0 kts 22°
2026-05-04 18:27 55.62564 12.64542 27 ft 0 kts 22°